User: anonymous   Login
Location: Olsztyn
(53.7767°N, 20.4765°E)
Time: 06:39:28
(UTC+02:00)
Language:

Vanguard 1 - Orbit

View from above orbital plane
View from above orbital plane
View from above satellite
View from above satellite

Ground track
Ground track

The orbit data is extracted from the following two-line orbital elements,

1 00005U 58002B   22221.31834512  .00000255  00000-0  29705-3 0  9994
2 00005  34.2634 336.5046 1848132 275.4677  63.8983 10.84990872290287
Epoch (UTC): 09 August 2022 07:38:25
Eccentricity: 0.1848132
inclination: 34.2634°
perigee height: 648 km
apogee height: 3833 km
right ascension of ascending node: 336.5046°
argument of perigee: 275.4677°
revolutions per day: 10.84990872
mean anomaly at epoch: 63.8983°
orbit number at epoch: 29028

The dashed part of the orbit path shows where the satellite is in the earth's shadow,  

DLR